[[{"header":{"parameterUnit":"m.s-1","parameterCategory":2,"la1":30.2991,"la2":30.254,"lo1":-89.0895,"lo2":-89.0444,"dy":0.0017,"dx":0.0017,"nx":28,"ny":28,"refTime":"2025-08-18T21:00:00:Z","depth":"0","parameterNumber":2,"parameterNumberName":"U-component_of_CURRENTS"},"data":[0,0,0,0,0,0,0,0,0,0,0,0,0,0,0,0,0,0,0,0,0,0,0,0,0,0,0,0,0,0,0,0,0,0,0,0,0,0,0,0,0,0,0,0,0,0,0,0,0,0,0,0,0,0,0,0,0,0,0.2649,0.2649,0,0.2649,0.2649,0.2648,0.263,0.263,0.263,0.263,0.2613,0.2613,0.2613,0,0,0,0,0,0,0,0,0,0,0,0,0,0.2662,0.2662,0.2649,0.2649,0.2649,0.2649,0.2649,0.2648,0.2631,0.263,0.263,0.2629,0.2614,0.2613,0.2613,0,0,0,0,0,0,0,0,0,0,0,0,0,0.2657,0.2662,0.2649,0.2641,0.2641,0.2649,0.2649,0.2648,0.2631,0.263,0.263,0.2629,0.2614,0.2613,0.2613,0.2621,0,0,0.2613,0.2612,0,0,0,0,0,0,0,0,0.2657,0.2656,0.2642,0.2642,0.2641,0.2641,0.2648,0.2639,0.2631,0.2633,0.263,0.2629,0.2623,0.2622,0.262,0.2621,0.262,0.2613,0.2612,0.2612,0.2612,0,0,0,0,0,0,0,0.2658,0.2657,0.2647,0.2642,0.2642,0.2648,0.2646,0.2646,0.2629,0.2632,0.2632,0.2634,0.2622,0.2621,0.262,0.262,0.2613,0.2612,0.2612,0.2612,0.2664,0.2666,0,0,0,0,0,0,0.266,0.2657,0.2647,0.2647,0.265,0.2648,0.2646,0.264,0.2629,0.2627,0.2635,0.2634,0.2621,0.262,0.2619,0.2663,0.2612,0.2612,0.2612,0.2663,0.2665,0.2666,0,0,0,0,0,0,0.266,0.2659,0.2647,0.2654,0.2653,0.2649,0.2642,0.264,0.2639,0.2631,0.2629,0.2635,0.2621,0.262,0.2628,0.2661,0.2612,0.2612,0.2661,0.2663,0.2666,0.2728,0,0,0,0,0,0,0.2661,0.2659,0.2657,0.2654,0.2653,0.2663,0.2642,0.2641,0.2642,0.264,0.2631,0.2629,0.262,0.2629,0.2628,0.2659,0.2612,0.2659,0.2662,0.2665,0.2724,0.2732,0.2739,0,0,0,0,0,0.2661,0.2661,0.2657,0.2656,0.2649,0.2665,0.2665,0.2659,0.2643,0.2653,0.2644,0.2629,0.2647,0.263,0.2628,0.2661,0.2658,0.2661,0.2665,0.272,0.273,0.2739,0,0,0,0,0,0,0.2669,0.266,0.2654,0.2652,0.2664,0.2662,0.2669,0.2662,0.2662,0.2655,0.2641,0.264,0.2666,0.2652,0.2634,0.2686,0.2653,0.2656,0.2696,0.2705,0.2712,0.2722,0.2612,0,0,0,0,0,0.267,0.2665,0.2667,0.2669,0.2673,0.267,0.2674,0.2671,0.2671,0.267,0.2664,0.2663,0.268,0.2681,0.2691,0.2709,0.2729,0.2732,0.2739,0.2746,0.2754,0.2834,0.285,0.2678,0.2678,0.2677,0,0,0.2675,0.2669,0.2667,0.2671,0.2673,0.2684,0.2671,0.2681,0.2693,0.2668,0.268,0.269,0.2693,0.2723,0.2733,0.2712,0.2803,0.275,0.2755,0.2761,0.2839,0.2856,0.2872,0.268,0.2679,0.2679,0,0,0.2683,0.2677,0.2677,0.2685,0.2693,0.2698,0.2702,0.2705,0.2712,0.2726,0.2724,0.2754,0.2753,0.278,0.2789,0.2842,0.2845,0.2842,0.2882,0.296,0.2975,0.2988,0.3025,0.3041,0.284,0.284,0.284,0,0.2693,0.2681,0.2685,0.2689,0.2696,0.2703,0.2712,0.2728,0.2736,0.2753,0.2736,0.2788,0.2787,0.2849,0.2868,0.2861,0.2891,0.2846,0.2971,0.2985,0.2998,0.3032,0.3049,0.2844,0.2843,0.2843,0.2843,0,0.2696,0.2692,0.2696,0.2699,0.2717,0.2725,0.2748,0.277,0.2774,0.2791,0.2849,0.2865,0.2898,0.2911,0.29,0.2996,0.2983,0.2978,0.2949,0.3019,0.305,0.3067,0.2849,0.2847,0.2846,0.2846,0,0,0.2691,0.2696,0.2693,0.2694,0.2717,0.2729,0.277,0.2809,0.2841,0.287,0.2926,0.2967,0.2986,0.3,0.3012,0.3073,0.3182,0.3062,0.3065,0.31,0.3335,0.3176,0.3178,0.3206,0.321,0.3213,0.3316,0,0.2688,0.2688,0.2698,0.271,0.2712,0.2745,0.2786,0.283,0.2868,0.293,0.2984,0.304,0.3019,0.305,0.3112,0.3176,0.3231,0.3152,0.3261,0.3263,0.3115,0.3194,0.2998,0.3061,0.3333,0.3335,0.3337,0,0.2665,0.2673,0.2677,0.2707,0.2714,0.2734,0.2801,0.2839,0.2939,0.2978,0.3054,0.31,0.3204,0.3175,0.3319,0.3272,0.3307,0.3344,0.3349,0.3191,0.3135,0.3038,0.3081,0.299,0.3363,0.3361,0.3359,0,0.2628,0.2647,0.2648,0.2655,0.2703,0.2727,0.2763,0.285,0.2907,0.3021,0.3092,0.3196,0.3276,0.3352,0.3413,0.3387,0.3563,0.3535,0.3421,0.3409,0.3255,0.3223,0.3222,0.3639,0.3639,0.3639,0.3638,0,0.2594,0.2592,0.2629,0.2627,0.2661,0.2702,0.2762,0.282,0.2934,0.3021,0.3117,0.3217,0.3333,0.3436,0.3465,0.3489,0.3606,0.3443,0.3437,0.3266,0.3234,0.3154,0.3142,0.3642,0.3642,0.3641,0.364,0,0.2541,0.2556,0.2568,0.262,0.2637,0.2662,0.2759,0.2821,0.2924,0.3052,0.3104,0.3276,0.3386,0.3466,0.3597,0.3546,0.3469,0.3563,0.3325,0.3286,0.3022,0.302,0.2917,0.2842,0.3443,0.344,0.3437,0,0.2513,0.2509,0.2559,0.2585,0.2606,0.2655,0.271,0.2805,0.288,0.308,0.3152,0.3304,0.3368,0.3474,0.3427,0.3423,0.3375,0.3235,0.313,0.2987,0.2985,0.289,0.283,0.2964,0.2958,0.2953,0.2948,0,0.2486,0.2502,0.2529,0.2579,0.2623,0.2669,0.2744,0.2794,0.2926,0.3019,0.3151,0.3211,0.3278,0.3176,0.3148,0.3124,0.3032,0.3121,0.307,0.268,0.2488,0.2418,0.2902,0.2902,0.2907,0.291,0.2913,0.2914,0.2486,0.25,0.2547,0.2581,0.2635,0.2673,0.2673,0.2755,0.2825,0.2901,0.3039,0.3024,0.2978,0.2881,0.2846,0.2613,0.2687,0.2496,0.2531,0.2467,0.2299,0.264,0.2562,0.2565,0.2567,0.2569,0.2571,0,0.2488,0.2507,0.2552,0.2588,0.2616,0.2649,0.2694,0.2661,0.2671,0.2725,0.2758,0.2633,0.2483,0.2419,0.2194,0.2055,0.1982,0.2003,0.1867,0.1863,0.2251,0.213,0.1835,0.1836,0.1836,0.1836,0.1836,0.1836,0.2503,0.2523,0.2529,0.255,0.257,0.254,0.2526,0.2471,0.2451,0.2326,0.2207,0.2195,0.2143,0.1975,0.1752,0.1694,0.16,0.1459,0.1556,0.1861,0.1911,0.1958,0.184,0.149,0.1489,0.1033,0.103,0.1028]},{"header":{"parameterUnit":"m.s-1","parameterCategory":2,"la1":30.2991,"la2":30.254,"lo1":-89.0895,"lo2":-89.0444,"dy":0.0017,"dx":0.0017,"nx":28,"ny":28,"refTime":"2025-08-18T21:00:00:Z","depth":"0","parameterNumber":3,"parameterNumberName":"V-component_of_CURRENTS"},"data":[0,0,0,0,0,0,0,0,0,0,0,0,0,0,0,0,0,0,0,0,0,0,0,0,0,0,0,0,0,0,0,0,0,0,0,0,0,0,0,0,0,0,0,0,0,0,0,0,0,0,0,0,0,0,0,0,0,0,0.0365,0.0365,0,0.0351,0.0351,0.0351,0.0336,0.0336,0.0336,0.0335,0.0316,0.0316,0.0316,0,0,0,0,0,0,0,0,0,0,0,0,0,0.0348,0.0348,0.0365,0.0365,0.0364,0.0351,0.0351,0.0351,0.0336,0.0336,0.0336,0.0335,0.0316,0.0316,0.0316,0,0,0,0,0,0,0,0,0,0,0,0,0,0.0347,0.0349,0.0365,0.0356,0.0355,0.0351,0.0351,0.0351,0.0336,0.0336,0.0335,0.0335,0.0317,0.0316,0.0316,0.0318,0,0,0.0314,0.0314,0,0,0,0,0,0,0,0,0.0347,0.0347,0.0357,0.0356,0.0355,0.0345,0.0338,0.034,0.0336,0.0343,0.0335,0.0335,0.0326,0.0325,0.0322,0.0318,0.0317,0.0314,0.0314,0.0314,0.0313,0,0,0,0,0,0,0,0.0347,0.0348,0.0359,0.0357,0.0356,0.0342,0.0342,0.0338,0.0336,0.0342,0.0341,0.034,0.0325,0.0323,0.0322,0.0316,0.0314,0.0314,0.0313,0.0313,0.0323,0.0323,0,0,0,0,0,0,0.0351,0.0348,0.036,0.0359,0.0351,0.0343,0.0343,0.0349,0.0336,0.0334,0.0341,0.034,0.0324,0.0322,0.0321,0.0348,0.0314,0.0313,0.0313,0.0322,0.0323,0.0324,0,0,0,0,0,0,0.0351,0.0353,0.036,0.0353,0.0353,0.0344,0.035,0.0348,0.0346,0.0335,0.0332,0.034,0.0324,0.0322,0.0324,0.0346,0.0313,0.0312,0.0322,0.0323,0.0323,0.0387,0,0,0,0,0,0,0.0351,0.0353,0.0357,0.0353,0.0353,0.0366,0.0351,0.0348,0.0346,0.0345,0.0334,0.0332,0.0323,0.0325,0.0323,0.0345,0.0312,0.0321,0.0322,0.0323,0.0384,0.039,0.0395,0,0,0,0,0,0.035,0.0361,0.0357,0.0359,0.036,0.0367,0.0366,0.0358,0.0346,0.0352,0.0343,0.0332,0.033,0.0325,0.0323,0.0345,0.0321,0.0322,0.0323,0.0382,0.0389,0.0395,0,0,0,0,0,0,0.0354,0.0361,0.0356,0.0368,0.037,0.0365,0.0368,0.036,0.0356,0.0354,0.0339,0.0337,0.0346,0.0334,0.0328,0.035,0.0324,0.0325,0.0369,0.0375,0.038,0.0404,0.0312,0,0,0,0,0,0.0358,0.0369,0.037,0.0379,0.0381,0.0374,0.0373,0.037,0.0366,0.0364,0.0357,0.035,0.035,0.0353,0.0348,0.0361,0.0361,0.0373,0.0378,0.0383,0.04,0.042,0.0429,0.0328,0.0328,0.0328,0,0,0.0361,0.0366,0.0371,0.038,0.038,0.0395,0.0373,0.0379,0.0394,0.0363,0.038,0.0367,0.0356,0.0372,0.0375,0.0365,0.0409,0.0384,0.0388,0.0404,0.0422,0.0432,0.0441,0.0329,0.0328,0.0328,0,0,0.0379,0.0379,0.0397,0.0402,0.0408,0.0408,0.0411,0.0411,0.0414,0.0424,0.0409,0.0414,0.0407,0.0415,0.0415,0.0446,0.0434,0.0437,0.049,0.0509,0.0518,0.0526,0.0534,0.0543,0.0444,0.0444,0.0444,0,0.0382,0.0406,0.0402,0.0421,0.0433,0.0417,0.0442,0.0445,0.0445,0.0461,0.0437,0.045,0.0434,0.0471,0.0479,0.0462,0.0464,0.0469,0.0518,0.0526,0.0533,0.054,0.0548,0.0447,0.0447,0.0447,0.0446,0,0.0418,0.0434,0.0446,0.0469,0.048,0.0498,0.0505,0.0518,0.0514,0.0519,0.0546,0.0529,0.0544,0.0534,0.0514,0.0561,0.0543,0.052,0.0507,0.0548,0.0551,0.0559,0.0452,0.0451,0.045,0.0449,0,0,0.0437,0.0467,0.047,0.0494,0.0509,0.0528,0.0557,0.059,0.0624,0.0616,0.0669,0.0655,0.0648,0.0648,0.0629,0.064,0.068,0.0605,0.0605,0.0623,0.0719,0.0674,0.0678,0.0667,0.0669,0.067,0.0701,0,0.0468,0.0516,0.0524,0.0573,0.0601,0.0606,0.0641,0.0666,0.0681,0.0728,0.0721,0.0755,0.0692,0.0711,0.0711,0.0698,0.0704,0.0674,0.067,0.067,0.0633,0.0687,0.0661,0.0684,0.0708,0.0709,0.071,0,0.0504,0.0534,0.0587,0.0641,0.0655,0.0682,0.0748,0.078,0.0829,0.0845,0.0872,0.0869,0.0899,0.0836,0.0834,0.0818,0.0776,0.075,0.075,0.0696,0.064,0.0646,0.0696,0.0628,0.0721,0.072,0.072,0,0.053,0.0581,0.0629,0.0644,0.0698,0.0732,0.0766,0.0816,0.0872,0.0934,0.0992,0.0995,0.1039,0.0984,0.0921,0.0888,0.0914,0.0861,0.0778,0.0774,0.0746,0.0736,0.074,0.0858,0.0858,0.0858,0.0858,0,0.0564,0.0603,0.0645,0.0673,0.0745,0.077,0.0856,0.089,0.0972,0.1073,0.1063,0.1153,0.1082,0.1083,0.0983,0.0916,0.0962,0.0808,0.0789,0.0765,0.0757,0.0689,0.0649,0.0859,0.0859,0.0858,0.0858,0,0.0586,0.0609,0.0673,0.0736,0.0758,0.0815,0.0916,0.099,0.1055,0.1196,0.1234,0.1299,0.1309,0.1211,0.1148,0.1022,0.0893,0.0894,0.0864,0.084,0.0672,0.0637,0.062,0.0598,0.0814,0.0814,0.0813,0,0.0605,0.0637,0.0717,0.0765,0.0796,0.0878,0.0946,0.1021,0.1119,0.1298,0.1389,0.1447,0.1508,0.1385,0.1176,0.0999,0.0911,0.0842,0.0764,0.0682,0.0629,0.0598,0.0579,0.0752,0.0751,0.075,0.0749,0,0.0646,0.0671,0.0726,0.0819,0.0894,0.0989,0.1099,0.1188,0.1319,0.1455,0.1635,0.1698,0.1593,0.1422,0.1164,0.1025,0.0789,0.0816,0.0754,0.0608,0.0556,0.0518,0.0705,0.0741,0.0742,0.0743,0.0743,0.0744,0.068,0.0725,0.0796,0.0887,0.0978,0.1104,0.1202,0.1345,0.152,0.1736,0.179,0.1883,0.162,0.1275,0.1092,0.0724,0.0747,0.0597,0.0571,0.0554,0.0507,0.0668,0.0661,0.0661,0.0662,0.0662,0.0662,0,0.072,0.0773,0.0863,0.0978,0.1089,0.1129,0.1312,0.1432,0.1653,0.1813,0.1959,0.183,0.1537,0.12,0.0709,0.0503,0.0439,0.0409,0.0371,0.0369,0.0535,0.0504,0.0437,0.0437,0.0437,0.0437,0.0437,0.0437,0.0747,0.0826,0.0871,0.1047,0.1139,0.13,0.1411,0.1596,0.1735,0.1893,0.1898,0.1892,0.1609,0.0873,0.0415,0.0328,0.0234,0.0186,0.0171,0.0278,0.0294,0.0309,0.0272,0.0156,0.0156,0.0014,0.0013,0.0012]}],[{"header":{"parameterUnit":"m.s-1","parameterCategory":2,"la1":30.2991,"la2":30.254,"lo1":-89.0895,"lo2":-89.0444,"dy":0.0017,"dx":0.0017,"nx":28,"ny":28,"refTime":"2025-08-18T21:00:00:Z","depth":"2","parameterNumber":2,"parameterNumberName":"U-component_of_CURRENTS"},"data":[0,0,0,0,0,0,0,0,0,0,0,0,0,0,0,0,0,0,0,0,0,0,0,0,0,0,0,0,0,0,0,0,0,0,0,0,0,0,0,0,0,0,0,0,0,0,0,0,0,0,0,0,0,0,0,0,0,0,0.2131,0.2131,0,0.212,0.212,0.212,0.2146,0.2147,0.2148,0.2149,0.2162,0.2162,0.2161,0,0,0,0,0,0,0,0,0,0,0,0,0,0.2143,0.2142,0.2131,0.2131,0.2131,0.212,0.212,0.212,0.2146,0.2147,0.2149,0.215,0.2163,0.2162,0.2161,0,0,0,0,0,0,0,0,0,0,0,0,0,0.2134,0.2142,0.2131,0.2144,0.2145,0.2121,0.212,0.212,0.2146,0.2147,0.2149,0.215,0.2163,0.2162,0.2161,0.2127,0,0,0.2159,0.2158,0,0,0,0,0,0,0,0,0.2134,0.2133,0.2142,0.2143,0.2144,0.2138,0.2129,0.2124,0.2146,0.2144,0.2149,0.2151,0.2156,0.2156,0.2148,0.2127,0.2128,0.2158,0.2158,0.2158,0.2157,0,0,0,0,0,0,0,0.2135,0.2134,0.2125,0.2142,0.2143,0.214,0.214,0.2128,0.2141,0.2144,0.2147,0.2147,0.2157,0.2149,0.2149,0.2128,0.2159,0.2158,0.2157,0.2157,0.2185,0.2186,0,0,0,0,0,0,0.2139,0.2134,0.2126,0.2125,0.2145,0.2139,0.2139,0.2137,0.2141,0.2143,0.2146,0.2149,0.215,0.215,0.2149,0.2206,0.2158,0.2157,0.2156,0.2184,0.2185,0.2186,0,0,0,0,0,0,0.2139,0.2138,0.2126,0.2131,0.2129,0.2137,0.2134,0.2136,0.2149,0.2142,0.2145,0.2161,0.2151,0.2151,0.217,0.2203,0.2156,0.2156,0.2182,0.2184,0.2186,0.2257,0,0,0,0,0,0,0.214,0.2138,0.2142,0.2131,0.2129,0.2138,0.2133,0.2135,0.2147,0.2151,0.2155,0.2157,0.2152,0.2172,0.2169,0.2201,0.2155,0.218,0.2183,0.2185,0.2253,0.2261,0.2267,0,0,0,0,0,0.214,0.2144,0.2142,0.2142,0.2133,0.2139,0.2139,0.2147,0.2147,0.2162,0.2168,0.2158,0.2185,0.2172,0.2169,0.2201,0.2179,0.2182,0.2185,0.2249,0.2259,0.2267,0,0,0,0,0,0,0.2152,0.2146,0.2145,0.2147,0.2154,0.2145,0.2154,0.2154,0.2166,0.2172,0.2165,0.2168,0.2204,0.2185,0.2171,0.2217,0.2183,0.2186,0.2233,0.2242,0.2249,0.2249,0.2154,0,0,0,0,0,0.2153,0.2157,0.2154,0.2158,0.2161,0.2157,0.216,0.2166,0.2172,0.2179,0.2181,0.2187,0.2206,0.2212,0.2221,0.2231,0.2239,0.2252,0.226,0.2266,0.2265,0.2328,0.2342,0.2196,0.2196,0.2196,0,0,0.2159,0.2156,0.2159,0.2161,0.2162,0.2168,0.2164,0.2176,0.2189,0.2176,0.2198,0.2214,0.2217,0.2248,0.2261,0.2239,0.2311,0.227,0.2275,0.227,0.2333,0.2347,0.236,0.2197,0.2197,0.2197,0,0,0.2167,0.217,0.2173,0.218,0.2188,0.2187,0.2196,0.2198,0.2213,0.223,0.2239,0.2276,0.2277,0.2302,0.2311,0.2358,0.2355,0.2361,0.239,0.2453,0.2466,0.2477,0.2502,0.2515,0.2357,0.2357,0.2357,0,0.2174,0.2172,0.2179,0.2184,0.219,0.2199,0.2206,0.2219,0.2231,0.2249,0.225,0.23,0.2307,0.2359,0.2383,0.2377,0.2397,0.2358,0.2465,0.2476,0.2486,0.2509,0.2523,0.2361,0.236,0.236,0.236,0,0.218,0.2183,0.2189,0.2196,0.221,0.2219,0.2237,0.2261,0.2276,0.2288,0.2348,0.237,0.2403,0.2418,0.2413,0.2492,0.2478,0.2476,0.2444,0.2506,0.2525,0.2538,0.2366,0.2365,0.2364,0.2363,0,0,0.2173,0.2188,0.2189,0.2192,0.2215,0.2223,0.2261,0.2293,0.2328,0.2357,0.2409,0.2454,0.2477,0.2488,0.2503,0.255,0.2644,0.2543,0.2545,0.2571,0.2765,0.263,0.263,0.267,0.2673,0.2675,0.2748,0,0.2171,0.2179,0.2192,0.2205,0.2209,0.224,0.2273,0.2311,0.2355,0.2411,0.2458,0.2516,0.2501,0.2541,0.2586,0.2641,0.2682,0.2623,0.2698,0.2699,0.2575,0.2642,0.2418,0.2454,0.276,0.2762,0.2764,0,0.2158,0.2169,0.2178,0.2204,0.2211,0.2229,0.2294,0.2327,0.2413,0.2457,0.2528,0.257,0.2654,0.2637,0.2747,0.2713,0.2741,0.2769,0.2773,0.2628,0.2587,0.2443,0.2465,0.2785,0.2783,0.2781,0.278,0,0.2131,0.2151,0.2158,0.2166,0.2205,0.223,0.2263,0.2341,0.2394,0.2505,0.2569,0.2653,0.2729,0.2782,0.2824,0.281,0.293,0.2919,0.2816,0.2806,0.2616,0.2584,0.2995,0.2995,0.2995,0.2995,0.2995,0,0.2107,0.2113,0.2147,0.2152,0.2178,0.2215,0.2275,0.2328,0.2434,0.25,0.2594,0.2662,0.2777,0.2847,0.2862,0.2866,0.2964,0.2828,0.2824,0.2631,0.26,0.2883,0.2869,0.2998,0.2997,0.2997,0.2996,0,0.2065,0.2089,0.2099,0.2144,0.2161,0.2184,0.2279,0.2332,0.2436,0.2536,0.2584,0.2717,0.2803,0.2872,0.2972,0.2914,0.2932,0.2905,0.2645,0.2608,0.2757,0.2746,0.2812,0.2808,0.2804,0.2801,0.2799,0,0.204,0.2038,0.2081,0.2104,0.2126,0.2178,0.2219,0.2323,0.2385,0.2541,0.2578,0.2716,0.2749,0.2822,0.2788,0.2784,0.2878,0.2554,0.2475,0.2752,0.2743,0.2737,0.2731,0.2261,0.2255,0.2249,0.2245,0,0.2001,0.2018,0.2041,0.2072,0.2113,0.2148,0.2214,0.2256,0.2374,0.2452,0.2518,0.2557,0.2623,0.2509,0.251,0.2472,0.2532,0.244,0.2839,0.2322,0.2234,0.2224,0.2236,0.2197,0.2202,0.2205,0.2208,0.221,0.1983,0.1983,0.2014,0.2032,0.2083,0.2089,0.2088,0.2156,0.2206,0.2259,0.2354,0.2328,0.2339,0.2215,0.2127,0.2069,0.2248,0.2141,0.2158,0.2181,0.2085,0.1993,0.1892,0.1895,0.1897,0.19,0.1902,0,0.194,0.1945,0.197,0.1967,0.1957,0.2038,0.206,0.2022,0.2017,0.2076,0.209,0.1892,0.1796,0.1826,0.1646,0.1601,0.1601,0.1542,0.1536,0.1584,0.1627,0.1503,0.1156,0.1154,0.1151,0.1149,0,0,0.1925,0.1918,0.1911,0.1843,0.1855,0.183,0.1834,0.179,0.179,0.1704,0.167,0.1763,0.1788,0.1479,0.1406,0.1257,0.1423,0.1202,0.1803,0.1848,0.1888,0.1971,0.1833,0,0,0,0,0]},{"header":{"parameterUnit":"m.s-1","parameterCategory":2,"la1":30.2991,"la2":30.254,"lo1":-89.0895,"lo2":-89.0444,"dy":0.0017,"dx":0.0017,"nx":28,"ny":28,"refTime":"2025-08-18T21:00:00:Z","depth":"2","parameterNumber":3,"parameterNumberName":"V-component_of_CURRENTS"},"data":[0,0,0,0,0,0,0,0,0,0,0,0,0,0,0,0,0,0,0,0,0,0,0,0,0,0,0,0,0,0,0,0,0,0,0,0,0,0,0,0,0,0,0,0,0,0,0,0,0,0,0,0,0,0,0,0,0,0,0.014,0.014,0,0.0126,0.0126,0.0126,0.0117,0.0117,0.0117,0.0117,0.01,0.01,0.0099,0,0,0,0,0,0,0,0,0,0,0,0,0,0.013,0.013,0.014,0.014,0.014,0.0126,0.0126,0.0126,0.0117,0.0117,0.0117,0.0117,0.01,0.01,0.0099,0,0,0,0,0,0,0,0,0,0,0,0,0,0.0127,0.0131,0.014,0.0134,0.0133,0.0126,0.0126,0.0126,0.0117,0.0117,0.0117,0.0117,0.01,0.01,0.0099,0.0097,0,0,0.0097,0.0097,0,0,0,0,0,0,0,0,0.0127,0.0128,0.0135,0.0134,0.0133,0.0123,0.0116,0.0116,0.0117,0.0123,0.0117,0.0117,0.0107,0.0106,0.0104,0.0096,0.0095,0.0097,0.0097,0.0096,0.0096,0,0,0,0,0,0,0,0.0128,0.0128,0.0135,0.0135,0.0134,0.0122,0.0121,0.0116,0.0116,0.0123,0.0122,0.0121,0.0107,0.0105,0.0104,0.0095,0.0097,0.0097,0.0096,0.0096,0.0093,0.0093,0,0,0,0,0,0,0.0131,0.0128,0.0135,0.0134,0.013,0.0122,0.0122,0.0127,0.0116,0.0115,0.0121,0.012,0.0106,0.0104,0.0103,0.012,0.0096,0.0096,0.0096,0.0093,0.0093,0.0093,0,0,0,0,0,0,0.0131,0.0132,0.0136,0.013,0.013,0.0123,0.0128,0.0127,0.0127,0.0115,0.0113,0.0123,0.0106,0.0104,0.0104,0.0119,0.0096,0.0095,0.0092,0.0093,0.0093,0.0142,0,0,0,0,0,0,0.0131,0.0132,0.0136,0.0131,0.013,0.0139,0.0128,0.0126,0.0126,0.0125,0.0116,0.0114,0.0105,0.0105,0.0104,0.0118,0.0095,0.0092,0.0093,0.0093,0.014,0.0144,0.0147,0,0,0,0,0,0.0131,0.014,0.0137,0.0138,0.0137,0.014,0.0139,0.0132,0.0126,0.0131,0.0124,0.0114,0.0107,0.0105,0.0103,0.0117,0.0092,0.0092,0.0093,0.0138,0.0143,0.0147,0,0,0,0,0,0,0.0135,0.0139,0.0136,0.0145,0.0145,0.0138,0.0141,0.0135,0.0133,0.0132,0.0119,0.0117,0.0123,0.011,0.0108,0.0116,0.0098,0.0098,0.0133,0.0137,0.0141,0.0153,0.0094,0,0,0,0,0,0.0139,0.0149,0.0147,0.0154,0.0156,0.0149,0.0148,0.0145,0.0141,0.014,0.0133,0.0125,0.0123,0.0123,0.0117,0.0122,0.0113,0.0128,0.0132,0.0136,0.0144,0.0146,0.0151,0.0096,0.0096,0.0096,0,0,0.0141,0.0145,0.015,0.0156,0.0155,0.0165,0.0149,0.0153,0.0164,0.0138,0.015,0.0138,0.0127,0.0135,0.0136,0.0127,0.0144,0.0136,0.014,0.0146,0.0147,0.0153,0.0158,0.0096,0.0096,0.0096,0,0,0.0155,0.0157,0.0172,0.0175,0.0178,0.0177,0.018,0.0178,0.018,0.0186,0.0172,0.0171,0.0165,0.0163,0.0161,0.018,0.0164,0.0175,0.0207,0.021,0.0214,0.0219,0.0207,0.021,0.0178,0.0178,0.0178,0,0.0158,0.0178,0.0175,0.019,0.0199,0.0186,0.0205,0.0205,0.0203,0.0211,0.0197,0.0196,0.0181,0.0198,0.0202,0.0191,0.0184,0.0193,0.0216,0.022,0.0223,0.0211,0.0213,0.0181,0.018,0.018,0.018,0,0.0186,0.02,0.0209,0.0228,0.0237,0.025,0.0253,0.0261,0.0258,0.0257,0.027,0.0251,0.0254,0.0245,0.0229,0.0249,0.0232,0.0221,0.0208,0.0232,0.0217,0.0219,0.0184,0.0183,0.0182,0.0182,0,0,0.0201,0.0225,0.023,0.0249,0.026,0.0274,0.0294,0.0314,0.0338,0.0325,0.0355,0.0338,0.0325,0.0321,0.0301,0.0297,0.0307,0.0271,0.027,0.0267,0.0305,0.0266,0.0264,0.0302,0.0303,0.0303,0.0282,0,0.0226,0.0265,0.027,0.031,0.0333,0.0335,0.036,0.0374,0.0382,0.0406,0.0386,0.0406,0.0356,0.0367,0.0351,0.0327,0.0315,0.0313,0.0276,0.0275,0.0244,0.0266,0.0281,0.0262,0.0284,0.0284,0.0284,0,0.0256,0.0281,0.0323,0.0365,0.0376,0.0397,0.0445,0.0467,0.0488,0.0498,0.0502,0.0489,0.0487,0.0442,0.0404,0.0406,0.0357,0.0327,0.0325,0.0275,0.024,0.0241,0.0264,0.0287,0.0287,0.0286,0.0286,0,0.0279,0.032,0.0359,0.0371,0.0412,0.0438,0.0465,0.0495,0.0537,0.0565,0.0601,0.0576,0.0595,0.0529,0.0451,0.0437,0.0403,0.0376,0.029,0.0287,0.0285,0.028,0.0344,0.0344,0.0344,0.0344,0.0344,0,0.0309,0.0341,0.0374,0.0398,0.0457,0.0473,0.0542,0.0564,0.0617,0.0686,0.0655,0.0701,0.0621,0.0588,0.0488,0.0397,0.043,0.0302,0.0284,0.03,0.0297,0.0307,0.0303,0.0343,0.0344,0.0344,0.0344,0,0.0329,0.0349,0.04,0.0449,0.0469,0.0515,0.06,0.0657,0.0697,0.079,0.0812,0.0815,0.0777,0.0671,0.058,0.0466,0.0369,0.0322,0.0336,0.0319,0.0238,0.0237,0.0233,0.0232,0.0231,0.023,0.0229,0,0.0343,0.0367,0.0435,0.0479,0.0504,0.0575,0.0633,0.0692,0.0766,0.0862,0.0918,0.0913,0.0909,0.0741,0.0566,0.0392,0.0368,0.0274,0.0242,0.0247,0.023,0.023,0.0231,0.0257,0.0257,0.0256,0.0256,0,0.0369,0.0391,0.0437,0.0521,0.0588,0.0672,0.0763,0.0835,0.0926,0.1004,0.109,0.1089,0.0944,0.0779,0.0537,0.0412,0.03,0.0258,0.0285,0.0275,0.0266,0.025,0.0251,0.0252,0.0253,0.0253,0.0253,0.0253,0.0391,0.0427,0.0488,0.057,0.0653,0.0763,0.0847,0.0957,0.1078,0.1196,0.1188,0.1181,0.0994,0.0684,0.0479,0.027,0.028,0.0189,0.0193,0.0196,0.0195,0.0184,0.0154,0.0153,0.0153,0.0153,0.0153,0,0.0417,0.0461,0.0537,0.0637,0.0729,0.0773,0.0931,0.102,0.117,0.1246,0.1296,0.1096,0.0913,0.0699,0.0389,0.0189,0.0183,0.0123,0.0165,0.0171,0.0175,0.0174,0.0126,0.0125,0.0124,0.0124,0,0,0.0434,0.0501,0.0538,0.0678,0.0756,0.089,0.0989,0.113,0.1222,0.1271,0.1262,0.1223,0.0972,0.0735,0.0484,0.0311,0.0282,0.0269,0.0312,0.0398,0.0405,0.0234,0.024,0,0,0,0,0]}],[{"header":{"parameterUnit":"m.s-1","parameterCategory":2,"la1":30.2991,"la2":30.254,"lo1":-89.0895,"lo2":-89.0444,"dy":0.0017,"dx":0.0017,"nx":28,"ny":28,"refTime":"2025-08-18T21:00:00:Z","depth":"4","parameterNumber":2,"parameterNumberName":"U-component_of_CURRENTS"},"data":[0,0,0,0,0,0,0,0,0,0,0,0,0,0,0,0,0,0,0,0,0,0,0,0,0,0,0,0,0,0,0,0,0,0,0,0,0,0,0,0,0,0,0,0,0,0,0,0,0,0,0,0,0,0,0,0,0,0,0.1227,0.1227,0,0.1247,0.1247,0.1248,0.1277,0.1278,0.1278,0.1279,0.1324,0.1324,0.1325,0,0,0,0,0,0,0,0,0,0,0,0,0,0.1208,0.1208,0.1227,0.1227,0.1228,0.1247,0.1247,0.1248,0.1277,0.1278,0.1278,0.1279,0.1324,0.1324,0.1325,0,0,0,0,0,0,0,0,0,0,0,0,0,0.122,0.1208,0.1227,0.1246,0.1248,0.1247,0.1247,0.1248,0.1277,0.1278,0.1279,0.1279,0.1323,0.1324,0.1325,0.1311,0,0,0.1328,0.1328,0,0,0,0,0,0,0,0,0.1219,0.122,0.1243,0.1245,0.1247,0.1262,0.1258,0.1271,0.1276,0.1264,0.1279,0.128,0.1306,0.1308,0.1307,0.1313,0.1315,0.1328,0.1329,0.1329,0.1329,0,0,0,0,0,0,0,0.1218,0.122,0.1233,0.1243,0.1246,0.1252,0.1254,0.126,0.1278,0.1265,0.1268,0.1272,0.1307,0.1306,0.1309,0.1316,0.1328,0.1329,0.1329,0.133,0.1401,0.1402,0,0,0,0,0,0,0.1218,0.1219,0.1233,0.1234,0.1237,0.1251,0.1254,0.1255,0.1278,0.1283,0.1271,0.1274,0.1304,0.1307,0.131,0.1372,0.1329,0.133,0.133,0.1399,0.1401,0.1402,0,0,0,0,0,0,0.1218,0.1219,0.1232,0.1228,0.1231,0.1251,0.1251,0.1255,0.1283,0.1283,0.1288,0.13,0.1305,0.1309,0.1342,0.1371,0.133,0.1331,0.1398,0.14,0.1402,0.1447,0,0,0,0,0,0,0.1217,0.1218,0.1233,0.1228,0.1231,0.1251,0.1251,0.1254,0.1284,0.1287,0.1308,0.1312,0.1306,0.134,0.1342,0.1372,0.1332,0.1396,0.1399,0.1401,0.1443,0.145,0.1456,0,0,0,0,0,0.1216,0.1225,0.1233,0.1236,0.1245,0.1252,0.1254,0.127,0.1284,0.13,0.1317,0.1313,0.1358,0.1342,0.1344,0.1375,0.1395,0.1398,0.1401,0.1441,0.1449,0.1455,0,0,0,0,0,0,0.1225,0.1229,0.1238,0.1249,0.1261,0.1258,0.1277,0.1287,0.1311,0.1326,0.1325,0.1329,0.1372,0.1366,0.1348,0.1404,0.1378,0.1381,0.1408,0.1415,0.1421,0.1418,0.1332,0,0,0,0,0,0.1233,0.1244,0.1247,0.1261,0.127,0.128,0.1291,0.1303,0.1316,0.1329,0.1342,0.1361,0.138,0.1393,0.1406,0.1431,0.1434,0.1455,0.1461,0.1466,0.1466,0.1506,0.1516,0.1412,0.1412,0.1412,0,0,0.124,0.1246,0.1253,0.1266,0.1278,0.1289,0.129,0.1316,0.1333,0.133,0.1368,0.1385,0.1393,0.1425,0.1443,0.1427,0.1496,0.147,0.1474,0.1471,0.1511,0.1521,0.153,0.1414,0.1414,0.1414,0,0,0.1251,0.1268,0.1279,0.129,0.1315,0.1318,0.1333,0.1348,0.1368,0.1401,0.1408,0.1441,0.1468,0.1475,0.1482,0.1528,0.153,0.1544,0.1569,0.1609,0.1617,0.1625,0.1637,0.1645,0.1543,0.1543,0.1543,0,0.1263,0.1272,0.1286,0.1298,0.1311,0.1335,0.1348,0.1367,0.1394,0.1414,0.1425,0.1478,0.1488,0.1519,0.154,0.1542,0.156,0.1539,0.1616,0.1624,0.1631,0.1641,0.165,0.1546,0.1546,0.1545,0.1545,0,0.127,0.1291,0.1301,0.1322,0.1339,0.1358,0.1379,0.141,0.1442,0.1461,0.1515,0.1531,0.1562,0.1575,0.1574,0.1629,0.1624,0.1622,0.1596,0.1644,0.1652,0.166,0.155,0.1549,0.1548,0.1547,0,0,0.1257,0.1296,0.1304,0.1317,0.1354,0.1362,0.1403,0.1436,0.1467,0.1512,0.1553,0.1593,0.1617,0.1626,0.1634,0.1666,0.1731,0.1673,0.1674,0.168,0.1813,0.1685,0.1682,0.1755,0.1757,0.1759,0.1796,0,0.1261,0.1285,0.1306,0.1335,0.1346,0.1382,0.1414,0.1454,0.1496,0.1544,0.1583,0.1631,0.1632,0.1663,0.1696,0.1731,0.1757,0.172,0.1769,0.1769,0.1647,0.1688,0.1765,0.1802,0.1804,0.1805,0.1806,0,0.1255,0.1272,0.13,0.1338,0.1349,0.1375,0.1429,0.1462,0.1534,0.1574,0.1631,0.1667,0.1729,0.1724,0.18,0.1785,0.1805,0.182,0.1822,0.169,0.1656,0.1746,0.1821,0.182,0.1818,0.1817,0.1817,0,0.1226,0.1265,0.1288,0.13,0.1349,0.1378,0.1415,0.1481,0.1517,0.1606,0.1652,0.1719,0.1776,0.1817,0.1861,0.1848,0.1936,0.1916,0.1808,0.1799,0.1883,0.1874,0.1963,0.1963,0.1963,0.1962,0.1962,0,0.1203,0.1224,0.1281,0.1291,0.1324,0.1371,0.142,0.1468,0.1547,0.159,0.1675,0.1716,0.1812,0.1869,0.1886,0.1873,0.1961,0.1813,0.1804,0.19,0.1893,0.1888,0.1879,0.1964,0.1963,0.1963,0.1963,0,0.1162,0.1204,0.1227,0.1287,0.1312,0.1338,0.1419,0.1443,0.1541,0.1603,0.1641,0.175,0.1818,0.1879,0.1951,0.1895,0.1899,0.187,0.1967,0.1962,0.1722,0.1716,0.1736,0.1732,0.1728,0.1726,0.1723,0,0.1137,0.1149,0.1214,0.1226,0.1257,0.1308,0.1337,0.1433,0.146,0.16,0.1615,0.1729,0.1784,0.1784,0.1854,0.1863,0.1841,0.1822,0.1762,0.1712,0.1702,0.17,0.1698,0.1717,0.1717,0.1716,0.1715,0,0.1084,0.1122,0.1138,0.1166,0.1197,0.122,0.1275,0.1292,0.1398,0.1505,0.1554,0.1592,0.166,0.1704,0.1733,0.1734,0.1821,0.1785,0.1791,0.1734,0.169,0.1683,0.1685,0.1703,0.1704,0.1706,0.1706,0,0.1044,0.1038,0.1069,0.108,0.1111,0.1107,0.1156,0.119,0.1241,0.1397,0.1412,0.1533,0.1646,0.1637,0.1662,0.1656,0.1616,0.1548,0.1566,0.158,0.151,0.143,0.1355,0,0,0,0,0,0.0991,0.097,0.0974,0.0967,0.0992,0.1015,0.109,0.1142,0.126,0.1254,0.133,0.1384,0.1427,0.1491,0.145,0.1572,0.1613,0.1515,0.1542,0.1635,0.1649,0.158,0,0,0,0,0,0,0.095,0.0953,0.094,0.0872,0.0848,0.0864,0.0912,0.0997,0.1005,0.1141,0.1178,0.1279,0.1349,0.1433,0.1418,0.1433,0.1415,0.159,0.1586,0.1627,0.164,0.1651,0.1585,0,0,0,0,0]},{"header":{"parameterUnit":"m.s-1","parameterCategory":2,"la1":30.2991,"la2":30.254,"lo1":-89.0895,"lo2":-89.0444,"dy":0.0017,"dx":0.0017,"nx":28,"ny":28,"refTime":"2025-08-18T21:00:00:Z","depth":"4","parameterNumber":3,"parameterNumberName":"V-component_of_CURRENTS"},"data":[0,0,0,0,0,0,0,0,0,0,0,0,0,0,0,0,0,0,0,0,0,0,0,0,0,0,0,0,0,0,0,0,0,0,0,0,0,0,0,0,0,0,0,0,0,0,0,0,0,0,0,0,0,0,0,0,0,0,0.0082,0.0082,0,0.0075,0.0075,0.0075,0.007,0.007,0.007,0.0069,0.0058,0.0057,0.0057,0,0,0,0,0,0,0,0,0,0,0,0,0,0.0075,0.0075,0.0082,0.0082,0.0082,0.0075,0.0075,0.0075,0.007,0.007,0.0069,0.0069,0.0058,0.0058,0.0057,0,0,0,0,0,0,0,0,0,0,0,0,0,0.0074,0.0075,0.0082,0.0078,0.0078,0.0075,0.0075,0.0075,0.007,0.007,0.0069,0.0069,0.0058,0.0058,0.0057,0.0057,0,0,0.0056,0.0056,0,0,0,0,0,0,0,0,0.0074,0.0074,0.0079,0.0079,0.0078,0.0073,0.0068,0.0068,0.007,0.0073,0.0069,0.0069,0.0062,0.0062,0.0061,0.0056,0.0055,0.0056,0.0056,0.0056,0.0055,0,0,0,0,0,0,0,0.0074,0.0074,0.0079,0.0079,0.0078,0.0071,0.0071,0.0068,0.0068,0.0073,0.0072,0.0071,0.0062,0.0061,0.006,0.0055,0.0056,0.0056,0.0055,0.0055,0.0052,0.0053,0,0,0,0,0,0,0.0076,0.0075,0.008,0.0079,0.0076,0.0071,0.0071,0.0075,0.0068,0.0067,0.0071,0.0071,0.0062,0.0061,0.006,0.0069,0.0056,0.0055,0.0055,0.0052,0.0052,0.0053,0,0,0,0,0,0,0.0076,0.0076,0.008,0.0076,0.0076,0.0072,0.0075,0.0075,0.0076,0.0067,0.0066,0.0074,0.0062,0.0061,0.006,0.0068,0.0055,0.0055,0.0052,0.0052,0.0053,0.008,0,0,0,0,0,0,0.0075,0.0076,0.008,0.0077,0.0076,0.0082,0.0076,0.0075,0.0075,0.0075,0.0069,0.0068,0.0062,0.0061,0.006,0.0067,0.0054,0.0052,0.0052,0.0052,0.0078,0.0081,0.0083,0,0,0,0,0,0.0075,0.0082,0.0081,0.0081,0.0082,0.0083,0.0082,0.0078,0.0076,0.0079,0.0074,0.0068,0.0062,0.0061,0.006,0.0067,0.0052,0.0052,0.0052,0.0078,0.008,0.0082,0,0,0,0,0,0,0.0078,0.0081,0.008,0.0087,0.0086,0.0082,0.0084,0.0081,0.008,0.008,0.0071,0.007,0.0071,0.0064,0.0063,0.0066,0.0055,0.0056,0.0075,0.0077,0.0079,0.0087,0.0054,0,0,0,0,0,0.0081,0.0088,0.0087,0.0092,0.0094,0.009,0.009,0.0088,0.0085,0.0085,0.008,0.0074,0.0072,0.0071,0.0066,0.0069,0.0054,0.0072,0.0074,0.0076,0.0081,0.0063,0.0064,0.0054,0.0054,0.0054,0,0,0.0083,0.0086,0.0089,0.0094,0.0093,0.0101,0.009,0.0093,0.01,0.0083,0.0091,0.0081,0.0073,0.0076,0.0077,0.0072,0.0069,0.0076,0.0078,0.0082,0.0064,0.0065,0.0066,0.0054,0.0054,0.0054,0,0,0.0092,0.0094,0.0104,0.0107,0.0109,0.0109,0.0111,0.011,0.0111,0.0116,0.0105,0.0098,0.0097,0.0091,0.0088,0.0098,0.008,0.0097,0.0116,0.0099,0.01,0.01,0.0076,0.0074,0.0099,0.0099,0.0099,0,0.0094,0.0108,0.0106,0.0116,0.0123,0.0115,0.0129,0.0129,0.0127,0.0131,0.0123,0.0115,0.0104,0.0108,0.011,0.0103,0.0089,0.0108,0.0102,0.0102,0.0102,0.0077,0.0075,0.01,0.01,0.01,0.01,0,0.0111,0.0122,0.0128,0.0142,0.0149,0.0158,0.0161,0.0166,0.0165,0.0163,0.0164,0.0146,0.0143,0.0136,0.0128,0.0125,0.0113,0.0105,0.0097,0.0105,0.0078,0.0075,0.0102,0.0102,0.0102,0.0101,0,0,0.012,0.0138,0.0141,0.0156,0.0165,0.0176,0.0189,0.0201,0.0215,0.0203,0.0216,0.0199,0.0185,0.0181,0.0164,0.0148,0.0129,0.0131,0.0129,0.0109,0.0087,0.0079,0.0075,0.0122,0.0122,0.0122,0.0066,0,0.0136,0.0162,0.0168,0.0198,0.0213,0.0217,0.0235,0.0243,0.0245,0.0253,0.0231,0.0235,0.0204,0.0205,0.0182,0.0147,0.0124,0.0145,0.0081,0.0079,0.0073,0.0073,0.0121,0.0063,0.0063,0.0062,0.0062,0,0.0153,0.0171,0.0201,0.0235,0.0244,0.0262,0.0293,0.0309,0.0314,0.0315,0.0304,0.0286,0.0263,0.0237,0.0172,0.0188,0.0141,0.0106,0.0103,0.0087,0.0066,0.0054,0.0056,0.0057,0.0057,0.0057,0.0058,0,0.0166,0.0198,0.0226,0.0236,0.0268,0.0289,0.0312,0.0328,0.0355,0.0356,0.0369,0.033,0.0321,0.0257,0.018,0.0179,0.0104,0.0092,0.0036,0.0034,0.0046,0.0046,0.0043,0.0043,0.0043,0.0043,0.0044,0,0.0183,0.0207,0.0236,0.0253,0.03,0.0315,0.0366,0.0378,0.0406,0.0442,0.0405,0.0412,0.0327,0.0273,0.0194,0.0105,0.011,0.004,0.0022,0.0057,0.0059,0.0043,0.0044,0.0041,0.0042,0.0042,0.0042,0,0.0192,0.0208,0.0247,0.0288,0.0307,0.0344,0.0414,0.045,0.0467,0.051,0.0516,0.0478,0.0406,0.0308,0.0202,0.0132,0.0044,0.0009,0.0051,0.0036,-0.002,-0.0017,-0.0055,-0.0056,-0.0057,-0.0057,-0.0058,0,0.0198,0.0216,0.0274,0.0309,0.0332,0.0391,0.0438,0.0478,0.052,0.0549,0.057,0.0517,0.0475,0.0316,0.0207,0.0052,0.0028,-0.0022,-0.002,-0.0015,-0.0029,-0.0025,-0.0021,-0.0059,-0.0059,-0.0059,-0.0059,0,0.0212,0.0232,0.0267,0.0336,0.0391,0.0459,0.0525,0.0561,0.0608,0.0621,0.0616,0.0538,0.0454,0.0321,0.02,0.0089,0.0009,-0.0029,-0.0028,-0.0027,-0.0019,-0.0031,-0.0027,-0.0061,-0.0061,-0.0061,-0.006,0,0.0225,0.0251,0.03,0.0365,0.0435,0.0507,0.0543,0.0593,0.0634,0.0659,0.0651,0.056,0.0506,0.034,0.0229,0.0118,0.0088,0.0048,0.0044,0.0045,0.0088,0.0113,0.0099,0,0,0,0,0,0.0237,0.027,0.0328,0.0401,0.0473,0.0515,0.0595,0.0627,0.0666,0.0668,0.0664,0.0584,0.0426,0.0355,0.0244,0.0209,0.0063,0.0073,0.0013,-0.0072,-0.007,-0.0036,0,0,0,0,0,0,0.0246,0.0295,0.0325,0.042,0.0473,0.0556,0.0607,0.0636,0.064,0.0656,0.0572,0.0543,0.0386,0.0484,0.0234,0.0202,0.0147,0.0002,-0.0001,-0.0073,-0.0071,-0.0069,-0.0034,0,0,0,0,0]}]]